Location: Teramo
(42.6500°N, 13.7000°E)
Time: 17:28:24
(UTC+02:00)

ISS - Visible Passes

Search period start: 01 October 2022 00:00
Search period end: 11 October 2022 00:00
Orbit: 413 x 417 km, 51.6° (Epoch: 01 October)

Date Brightness Start Highest point End Pass type
(mag) Time Alt. Az. Time Alt. Az. Time Alt. Az.
01 Oct -3.7 20:32:46 10° WNW 20:35:58 78° W 20:35:58 78° W visible
02 Oct -3.6 19:43:58 10° NW 19:47:18 60° NNE 19:49:15 22° ESE visible
02 Oct -0.7 21:21:22 10° W 21:22:08 14° W 21:22:08 14° W visible
03 Oct -2.3 20:32:02 10° WNW 20:35:02 30° SW 20:35:29 29° SSW visible
04 Oct -3.1 19:42:58 10° WNW 19:46:15 53° SW 19:48:57 14° SE visible
05 Oct -0.8 20:32:23 10° WSW 20:33:37 12° SW 20:34:49 10° SSW visible
06 Oct -1.3 19:42:21 10° W 19:44:53 20° SW 19:47:24 10° S visible
